OPS 4682 DEB, 1316

Orbit data source: Space-Track

OPS 4682 DEB, 1316 is space debris in LEO originally from a launch on Sat, 03 Apr 1965 UTC launched from the Air Force Western Test Range (AFWTR). Debris objects in space refer to the collection of defunct objects orbiting the Earth. Examples of debris include non-operational satellites, rocket bodies, and fragments generated from explosions, collisions, or faulty payload assembly.

Loading next visibility...
Identifier
1316, 1965-027C
Orbit
LEO
Last TLE update
13 hours ago
Origin
Manufacturer
Unknown
Mission
Spacecraft
Bus & Motor
Unknown
Mass
7 kg wet, 7 kg dry
Launch date (UTC)
1965-04-03 (60 years ago)
Launch vehicle
Unknown
Launch site
Air Force Western Test Range (AFWTR)
Object type
Payload
Rocket body
Debris
Shape & HBR
Half Cyl, 2 m
Radar Cross Section
2.370 m², Medium (>0.1 m² and < 1m²)

Expand to show TLE details & history

TLE from 13 hours ago
0 OPS 4682 DEB
1 01316U 65027C   25181.83024816  .00000518  00000-0  12271-2 0  9999
2 01316  90.2512  18.8521 0036515  69.5342 290.9707 13.21905912872572
Epoch: 2025-06-30T19:55Z
TLE epoch observation values (Epoch: 2025-06-30T19:55:33.441Z)
Latitude
0.00001°
Longitude
160.82834°
Altitude
1,170.573 km
Speed
7.273 km/s
True Right ascension
01h 15m 24s
True Declination
0° 00' 00"
Sunlit
Object was in daylight at epoch
Visualization orbit readout
Latitude
77.62512°
Longitude
-18.0192°
Altitude
1,167.874 km
Speed
7.287 km/s
Apparent Right ascension
09h 48m 43s
Apparent Declination
29° 52' 50"
Sunlit
Object is in daylight
Visualization observer readout
Local Sidereal Time
20:47:33
Azimuth
346.023° N
Elevation
-18.772°
Doppler factor
1
Orbital elements
Apogee altitude
1,202.119 km
Perigee altitude
1,146.961 km
Semi-major axis
7,552.677 km
Eccentricity
0.00365
Inclination
90.2512°
RAAN
18.8521°
Arg. of periapsis
69.5342°
True anomaly
Unknown
Mean anomaly
290.9707°
Eccentric anomaly
Unknown
Mean motion
3.30668 °/min
Orbital period
108.87 mins
BSTAR
0.0012271
Loading maneuver chart data...
Loading SW <> Apogee altitude chart data...
Loading historical data...
Loading historical data...
Loading historical data...
Loading historical data...
Loading historical data...
Loading historical data...
Loading historical data...

OPS 4682 DEB Visibility forecast

Observer location: undefined°, undefined°

Span
Click to sort rows by Start time (UTC) header in descending order
Start Az.
Max El. time (UTC)
Max El. Az.
Max El.
End time (UTC)
End Az.
11 mins2025-07-01 12:23:19.114Z132.771° SE2025-07-01 12:29:19.114Z72.566° E26.706°2025-07-01 12:34:19.114Z21.401° NNE
11 mins2025-07-01 14:12:19.114Z206.715° SW2025-07-01 14:17:19.114Z268.699° W35.55°2025-07-01 14:23:19.114Z342.314° N
6 mins2025-07-01 23:49:19.114Z50.407° ENE2025-07-01 23:52:19.114Z78.445° E15.483°2025-07-01 23:55:19.114Z105.741° ESE
12 mins2025-07-02 01:36:19.114Z359.932° N2025-07-02 01:41:19.114Z314.137° NW44.571°2025-07-02 01:48:19.114Z188.469° SSW
4 mins2025-07-02 03:27:19.114Z308.827° NW2025-07-02 03:29:19.114Z291.095° WNW12.782°2025-07-02 03:31:19.114Z273.664° WNW
|